Time,TemperatureF,DewpointF,PressureIn,WindDirection,WindDirectionDegrees,WindSpeedMPH,WindSpeedGustMPH,Humidity,HourlyPrecipIn,Conditions,Clouds,dailyrainin,SoftwareType,DateUTC
2013-03-09 00:09:00,37.0,34.6,30.00,West,270,5.0,12.0,91,0.02,,---,0.00,VWS V14.01,2013-03-09 07:09:00,
2013-03-09 00:19:00,37.0,34.3,30.00,East,90,4.0,12.0,90,0.01,,---,0.00,VWS V14.01,2013-03-09 07:19:00,
2013-03-09 00:29:00,37.0,34.3,30.01,WSW,247,7.0,13.0,90,0.01,,---,0.00,VWS V14.01,2013-03-09 07:29:00,
2013-03-09 00:39:00,37.0,34.3,30.01,WSW,247,8.0,13.0,90,0.01,,---,0.00,VWS V14.01,2013-03-09 07:39:00,
2013-03-09 00:49:00,37.0,32.6,30.01,WSW,247,3.0,13.0,84,0.01,,---,0.00,VWS V14.01,2013-03-09 07:49:00,
2013-03-09 00:59:00,37.0,31.7,30.01,West,270,3.0,12.0,81,0.00,,---,0.00,VWS V14.01,2013-03-09 07:59:00,
2013-03-09 01:09:00,37.0,32.0,30.01,West,270,0.0,3.0,82,0.00,,---,0.00,VWS V14.01,2013-03-09 08:09:00,
2013-03-09 01:19:00,36.0,31.0,30.01,West,270,0.0,0.0,82,0.00,,---,0.00,VWS V14.01,2013-03-09 08:19:00,
2013-03-09 01:29:00,36.0,31.4,30.00,SW,225,0.0,0.0,83,0.00,,---,0.00,VWS V14.01,2013-03-09 08:29:00,
2013-03-09 01:40:00,36.0,30.8,30.00,North,360,0.0,0.0,81,0.00,,---,0.00,VWS V14.01,2013-03-09 08:40:00,
2013-03-09 01:49:00,36.0,27.5,30.00,WSW,247,0.0,10.0,71,0.00,,---,0.00,VWS V14.01,2013-03-09 08:49:00,
2013-03-09 01:59:00,36.0,26.8,30.00,SW,225,0.0,10.0,69,0.00,,---,0.00,VWS V14.01,2013-03-09 08:59:00,
2013-03-09 02:09:00,36.0,27.2,30.00,SSW,202,0.0,0.0,70,0.00,,---,0.00,VWS V14.01,2013-03-09 09:09:00,
2013-03-09 02:20:00,35.0,26.6,30.00,SSW,202,0.0,0.0,71,0.00,,---,0.00,VWS V14.01,2013-03-09 09:20:00,
2013-03-09 02:29:00,35.0,26.9,30.00,SSW,202,0.0,0.0,72,0.00,,---,0.00,VWS V14.01,2013-03-09 09:29:00,
2013-03-09 02:39:00,35.0,26.9,30.01,SSW,202,0.0,0.0,72,0.00,,---,0.00,VWS V14.01,2013-03-09 09:39:00,
2013-03-09 02:49:00,34.0,25.6,30.00,WSW,247,0.0,0.0,71,0.00,,---,0.00,VWS V14.01,2013-03-09 09:49:00,
2013-03-09 03:00:00,34.0,25.6,30.00,SW,225,0.0,0.0,71,0.00,,---,0.00,VWS V14.01,2013-03-09 10:00:00,
2013-03-09 03:09:00,33.0,25.0,30.00,WSW,247,0.0,6.0,72,0.00,,---,0.00,VWS V14.01,2013-03-09 10:09:00,
2013-03-09 03:19:00,33.0,25.3,30.00,WSW,247,3.0,9.0,73,0.00,,---,0.00,VWS V14.01,2013-03-09 10:19:00,
2013-03-09 03:29:00,33.0,24.6,30.00,WSW,247,5.0,11.0,71,0.00,,---,0.00,VWS V14.01,2013-03-09 10:29:00,
2013-03-09 03:39:00,33.0,24.0,30.00,WSW,247,10.0,20.0,69,0.00,,---,0.00,VWS V14.01,2013-03-09 10:39:00,
2013-03-09 03:49:00,33.0,23.2,29.99,West,270,7.0,19.0,67,0.00,,---,0.00,VWS V14.01,2013-03-09 10:49:00,
2013-03-09 03:59:00,33.0,23.2,29.98,WSW,247,12.0,22.0,67,0.00,,---,0.00,VWS V14.01,2013-03-09 10:59:00,
2013-03-09 04:09:00,33.0,23.2,29.99,WSW,247,5.0,19.0,67,0.00,,---,0.00,VWS V14.01,2013-03-09 11:09:00,
2013-03-09 04:19:00,32.0,23.0,29.99,WSW,247,8.0,18.0,69,0.00,,---,0.00,VWS V14.01,2013-03-09 11:19:00,
2013-03-09 04:29:00,32.0,23.3,30.00,North,360,11.0,13.0,70,0.00,,---,0.00,VWS V14.01,2013-03-09 11:29:00,
2013-03-09 04:39:00,32.0,23.0,30.01,WSW,247,5.0,14.0,69,0.00,,---,0.00,VWS V14.01,2013-03-09 11:39:00,
2013-03-09 04:49:00,31.0,22.4,30.02,WSW,247,5.0,11.0,70,0.00,,---,0.00,VWS V14.01,2013-03-09 11:49:00,
2013-03-09 04:59:00,31.0,21.7,30.01,SSW,202,3.0,14.0,68,0.00,,---,0.00,VWS V14.01,2013-03-09 11:59:00,
2013-03-09 05:09:00,31.0,21.7,30.01,WSW,247,0.0,12.0,68,0.00,,---,0.00,VWS V14.01,2013-03-09 12:09:00,
2013-03-09 05:19:00,31.0,22.0,30.02,WSW,247,8.0,13.0,69,0.00,,---,0.00,VWS V14.01,2013-03-09 12:19:00,
2013-03-09 05:29:00,30.0,21.4,30.03,WSW,247,12.0,15.0,70,0.00,,---,0.00,VWS V14.01,2013-03-09 12:29:00,
2013-03-09 05:39:00,30.0,21.4,30.03,West,270,0.0,12.0,70,0.00,,---,0.00,VWS V14.01,2013-03-09 12:39:00,
2013-03-09 05:49:00,30.0,22.1,30.04,West,270,0.0,0.0,72,0.00,,---,0.00,VWS V14.01,2013-03-09 12:49:00,
2013-03-09 05:59:00,29.0,21.1,30.04,WNW,292,0.0,0.0,72,0.00,,---,0.00,VWS V14.01,2013-03-09 12:59:00,
2013-03-09 06:09:00,29.0,22.1,30.04,WNW,292,0.0,0.0,75,0.00,,---,0.00,VWS V14.01,2013-03-09 13:09:00,
2013-03-09 06:19:00,29.0,21.8,30.05,WNW,292,0.0,0.0,74,0.00,,---,0.00,VWS V14.01,2013-03-09 13:19:00,
2013-03-09 06:29:00,29.0,21.8,30.05,WNW,292,0.0,0.0,74,0.00,,---,0.00,VWS V14.01,2013-03-09 13:29:00,
2013-03-09 06:39:00,29.0,21.1,30.05,WNW,292,0.0,0.0,72,0.00,,---,0.00,VWS V14.01,2013-03-09 13:39:00,
2013-03-09 06:49:00,28.0,20.5,30.05,WSW,247,0.0,0.0,73,0.00,,---,0.00,VWS V14.01,2013-03-09 13:49:00,
2013-03-09 06:59:00,28.0,20.8,30.06,WSW,247,0.0,0.0,74,0.00,,---,0.00,VWS V14.01,2013-03-09 13:59:00,
2013-03-09 07:09:00,28.0,21.4,30.06,SW,225,0.0,0.0,76,0.00,,---,0.00,VWS V14.01,2013-03-09 14:09:00,
2013-03-09 07:19:00,28.0,21.7,30.06,WSW,247,0.0,0.0,77,0.00,,---,0.00,VWS V14.01,2013-03-09 14:19:00,
2013-03-09 07:29:00,29.0,22.1,30.04,WSW,247,0.0,0.0,75,0.00,,---,0.00,VWS V14.01,2013-03-09 14:29:00,
2013-03-09 07:39:00,32.0,23.3,30.04,SW,225,0.0,0.0,70,0.00,,---,0.00,VWS V14.01,2013-03-09 14:39:00,
2013-03-09 07:49:00,33.0,22.5,30.03,West,270,0.0,0.0,65,0.00,,---,0.00,VWS V14.01,2013-03-09 14:49:00,
2013-03-09 07:59:00,33.0,21.4,30.02,WSW,247,0.0,3.0,62,0.00,,---,0.00,VWS V14.01,2013-03-09 14:59:00,
2013-03-09 08:09:00,32.0,20.5,30.03,West,270,0.0,6.0,62,0.00,,---,0.00,VWS V14.01,2013-03-09 15:09:00,
2013-03-09 08:19:00,32.0,20.9,30.03,WSW,247,0.0,0.0,63,0.00,,---,0.00,VWS V14.01,2013-03-09 15:19:00,
2013-03-09 08:29:00,33.0,21.4,30.04,WSW,247,0.0,0.0,62,0.00,,---,0.00,VWS V14.01,2013-03-09 15:29:00,
2013-03-09 08:39:00,34.0,21.2,30.03,WSW,247,0.0,0.0,59,0.00,,---,0.00,VWS V14.01,2013-03-09 15:39:00,
2013-03-09 08:49:00,35.0,21.7,30.02,West,270,0.0,7.0,58,0.00,,---,0.00,VWS V14.01,2013-03-09 15:49:00,
2013-03-09 08:59:00,36.0,21.4,30.00,SW,225,4.0,9.0,55,0.00,,---,0.00,VWS V14.01,2013-03-09 15:59:00,
2013-03-09 09:09:00,36.0,20.1,30.00,SW,225,0.0,10.0,52,0.00,,---,0.00,VWS V14.01,2013-03-09 16:09:00,
2013-03-09 09:19:00,35.0,19.6,30.01,WSW,247,0.0,8.0,53,0.00,,---,0.00,VWS V14.01,2013-03-09 16:19:00,
2013-03-09 09:29:00,35.0,18.7,30.02,WSW,247,4.0,11.0,51,0.00,,---,0.00,VWS V14.01,2013-03-09 16:29:00,
2013-03-09 09:39:00,35.0,18.7,30.02,SSW,202,0.0,8.0,51,0.00,,---,0.00,VWS V14.01,2013-03-09 16:39:00,
2013-03-09 09:49:00,36.0,19.6,30.02,SSW,202,7.0,9.0,51,0.00,,---,0.00,VWS V14.01,2013-03-09 16:49:00,
2013-03-09 09:59:00,36.0,19.2,30.02,SW,225,4.0,10.0,50,0.00,,---,0.00,VWS V14.01,2013-03-09 16:59:00,
2013-03-09 10:09:00,38.0,20.1,30.01,SW,225,3.0,11.0,48,0.00,,---,0.00,VWS V14.01,2013-03-09 17:09:00,
2013-03-09 10:19:00,38.0,19.1,29.99,West,270,11.0,11.0,46,0.00,,---,0.00,VWS V14.01,2013-03-09 17:19:00,
2013-03-09 10:29:00,38.0,19.1,29.99,WNW,292,0.0,14.0,46,0.00,,---,0.00,VWS V14.01,2013-03-09 17:29:00,
2013-03-09 10:39:00,38.0,19.6,29.99,WSW,247,12.0,12.0,47,0.00,,---,0.00,VWS V14.01,2013-03-09 17:39:00,
2013-03-09 10:49:00,37.0,19.1,30.00,WSW,247,7.0,13.0,48,0.00,,---,0.00,VWS V14.01,2013-03-09 17:49:00,
2013-03-09 10:59:00,39.0,20.5,30.00,WSW,247,8.0,14.0,47,0.00,,---,0.00,VWS V14.01,2013-03-09 17:59:00,
2013-03-09 11:09:00,40.0,19.9,29.99,WSW,247,10.0,14.0,44,0.00,,---,0.00,VWS V14.01,2013-03-09 18:09:00,
2013-03-09 11:19:00,40.0,18.2,29.97,West,270,7.0,19.0,41,0.00,,---,0.00,VWS V14.01,2013-03-09 18:19:00,
2013-03-09 11:29:00,39.0,17.9,29.98,WSW,247,12.0,16.0,42,0.00,,---,0.00,VWS V14.01,2013-03-09 18:29:00,
2013-03-09 11:39:00,40.0,17.1,29.98,WSW,247,13.0,17.0,39,0.00,,---,0.00,VWS V14.01,2013-03-09 18:39:00,
2013-03-09 11:49:00,40.0,17.1,29.98,West,270,8.0,22.0,39,0.00,,---,0.00,VWS V14.01,2013-03-09 18:49:00,
2013-03-09 11:59:00,40.0,17.6,29.98,SW,225,9.0,15.0,40,0.00,,---,0.00,VWS V14.01,2013-03-09 18:59:00,
2013-03-09 12:09:00,40.0,18.2,29.97,WSW,247,6.0,19.0,41,0.00,,---,0.00,VWS V14.01,2013-03-09 19:09:00,
2013-03-09 12:19:00,40.0,18.2,29.97,West,270,11.0,14.0,41,0.00,,---,0.00,VWS V14.01,2013-03-09 19:19:00,
2013-03-09 12:29:00,41.0,19.1,29.97,SW,225,13.0,16.0,41,0.00,,---,0.00,VWS V14.01,2013-03-09 19:29:00,
2013-03-09 12:39:00,42.0,14.3,29.96,WSW,247,12.0,21.0,32,0.00,,---,0.00,VWS V14.01,2013-03-09 19:39:00,
2013-03-09 12:49:00,44.0,18.1,29.96,West,270,15.0,19.0,35,0.00,,---,0.00,VWS V14.01,2013-03-09 19:49:00,
2013-03-09 12:59:00,42.0,16.4,29.95,West,270,10.0,19.0,35,0.00,,---,0.00,VWS V14.01,2013-03-09 19:59:00,
2013-03-09 13:09:00,43.0,17.2,29.94,West,270,22.0,27.0,35,0.00,,---,0.00,VWS V14.01,2013-03-09 20:09:00,
2013-03-09 13:19:00,41.0,19.7,29.94,West,270,27.0,27.0,42,0.00,,---,0.00,VWS V14.01,2013-03-09 20:19:00,
2013-03-09 13:29:00,39.0,22.4,29.95,West,270,15.0,31.0,51,0.00,,---,0.00,VWS V14.01,2013-03-09 20:29:00,
2013-03-09 13:39:00,41.0,19.1,29.95,WSW,247,6.0,18.0,41,0.00,,---,0.00,VWS V14.01,2013-03-09 20:39:00,
2013-03-09 13:49:00,38.0,22.4,29.95,WNW,292,8.0,25.0,53,0.00,,---,0.00,VWS V14.01,2013-03-09 20:49:00,
2013-03-09 13:59:00,39.0,22.4,29.96,West,270,10.0,20.0,51,0.00,,---,0.00,VWS V14.01,2013-03-09 20:59:00,
2013-03-09 14:09:00,40.0,21.4,29.97,West,270,7.0,14.0,47,0.00,,---,0.00,VWS V14.01,2013-03-09 21:09:00,
2013-03-09 14:19:00,39.0,20.5,29.96,WSW,247,16.0,26.0,47,0.00,,---,0.00,VWS V14.01,2013-03-09 21:19:00,
2013-03-09 14:29:00,41.0,20.8,29.96,WSW,247,14.0,23.0,44,0.00,,---,0.00,VWS V14.01,2013-03-09 21:29:00,
2013-03-09 14:39:00,42.0,19.5,29.96,West,270,13.0,23.0,40,0.00,,---,0.00,VWS V14.01,2013-03-09 21:39:00,
2013-03-09 14:49:00,42.0,17.6,29.95,WSW,247,12.0,21.0,37,0.00,,---,0.00,VWS V14.01,2013-03-09 21:49:00,
2013-03-09 14:59:00,42.0,19.5,29.96,WSW,247,10.0,21.0,40,0.00,,---,0.00,VWS V14.01,2013-03-09 21:59:00,
2013-03-09 15:09:00,42.0,17.6,29.96,West,270,9.0,19.0,37,0.00,,---,0.00,VWS V14.01,2013-03-09 22:09:00,
2013-03-09 15:19:00,41.0,17.4,29.96,West,270,4.0,18.0,38,0.00,,---,0.00,VWS V14.01,2013-03-09 22:19:00,
2013-03-09 15:29:00,42.0,16.4,29.96,WSW,247,11.0,17.0,35,0.00,,---,0.00,VWS V14.01,2013-03-09 22:29:00,
2013-03-09 15:39:00,42.0,16.4,29.96,WSW,247,14.0,18.0,35,0.00,,---,0.00,VWS V14.01,2013-03-09 22:39:00,
2013-03-09 15:49:00,42.0,17.0,29.96,West,270,13.0,17.0,36,0.00,,---,0.00,VWS V14.01,2013-03-09 22:49:00,
2013-03-09 15:59:00,42.0,15.7,29.96,West,270,10.0,17.0,34,0.00,,---,0.00,VWS V14.01,2013-03-09 22:59:00,
2013-03-09 16:09:00,42.0,17.0,29.97,North,360,18.0,19.0,36,0.00,,---,0.00,VWS V14.01,2013-03-09 23:09:00,
2013-03-09 16:19:00,42.0,16.4,29.97,West,270,15.0,22.0,35,0.00,,---,0.00,VWS V14.01,2013-03-09 23:19:00,
2013-03-09 16:29:00,42.0,17.0,29.97,West,270,11.0,19.0,36,0.00,,---,0.00,VWS V14.01,2013-03-09 23:29:00,
2013-03-09 16:39:00,41.0,19.7,29.98,NNW,337,0.0,16.0,42,0.00,,---,0.00,VWS V14.01,2013-03-09 23:39:00,
2013-03-09 16:49:00,40.0,25.1,29.99,NNW,337,11.0,14.0,55,0.00,,---,0.00,VWS V14.01,2013-03-09 23:49:00,
2013-03-09 16:59:00,39.0,25.9,30.00,NNW,337,0.0,11.0,59,0.00,,---,0.00,VWS V14.01,2013-03-09 23:59:00,
2013-03-09 17:09:00,39.0,26.3,30.01,NNW,337,0.0,6.0,60,0.00,,---,0.00,VWS V14.01,2013-03-10 00:09:00,
2013-03-09 17:19:00,38.0,26.1,30.01,WNW,292,0.0,10.0,62,0.00,,---,0.00,VWS V14.01,2013-03-10 00:19:00,
2013-03-09 17:29:00,38.0,25.8,30.02,NNW,337,0.0,10.0,61,0.00,,---,0.00,VWS V14.01,2013-03-10 00:29:00,
2013-03-09 17:39:00,38.0,25.8,30.02,WNW,292,0.0,10.0,61,0.00,,---,0.00,VWS V14.01,2013-03-10 00:39:00,
2013-03-09 17:49:00,39.0,26.3,30.03,NNW,337,4.0,8.0,60,0.00,,---,0.00,VWS V14.01,2013-03-10 00:49:00,
2013-03-09 17:59:00,39.0,24.6,30.03,West,270,10.0,17.0,56,0.00,,---,0.00,VWS V14.01,2013-03-10 00:59:00,
2013-03-09 18:09:00,38.0,24.1,30.04,WSW,247,7.0,20.0,57,0.00,,---,0.00,VWS V14.01,2013-03-10 01:09:00,
2013-03-09 18:19:00,38.0,24.5,30.04,West,270,13.0,15.0,58,0.00,,---,0.00,VWS V14.01,2013-03-10 01:19:00,
2013-03-09 18:29:00,37.0,24.8,30.06,West,270,9.0,15.0,61,0.00,,---,0.00,VWS V14.01,2013-03-10 01:29:00,
2013-03-09 18:39:00,36.0,25.0,30.07,North,360,0.0,11.0,64,0.00,,---,0.00,VWS V14.01,2013-03-10 01:39:00,
2013-03-09 18:49:00,35.0,25.5,30.08,NNW,337,0.0,8.0,68,0.00,,---,0.00,VWS V14.01,2013-03-10 01:49:00,
2013-03-09 18:59:00,35.0,26.6,30.08,North,360,0.0,0.0,71,0.00,,---,0.00,VWS V14.01,2013-03-10 01:59:00,
2013-03-09 19:09:00,34.0,26.6,30.09,NNW,337,0.0,0.0,74,0.00,,---,0.00,VWS V14.01,2013-03-10 02:09:00,
2013-03-09 19:19:00,34.0,27.2,30.09,WNW,292,0.0,0.0,76,0.00,,---,0.00,VWS V14.01,2013-03-10 02:19:00,
2013-03-09 19:29:00,34.0,27.2,30.10,NW,315,0.0,0.0,76,0.00,,---,0.00,VWS V14.01,2013-03-10 02:29:00,
2013-03-09 19:39:00,35.0,27.9,30.10,West,270,0.0,0.0,75,0.00,,---,0.00,VWS V14.01,2013-03-10 02:39:00,
2013-03-09 19:49:00,35.0,27.6,30.10,West,270,0.0,9.0,74,0.00,,---,0.00,VWS V14.01,2013-03-10 02:49:00,
2013-03-09 19:59:00,35.0,27.6,30.10,West,270,8.0,11.0,74,0.00,,---,0.00,VWS V14.01,2013-03-10 02:59:00,
2013-03-09 20:09:00,35.0,27.6,30.11,West,270,9.0,12.0,74,0.00,,---,0.00,VWS V14.01,2013-03-10 03:09:00,
2013-03-09 20:19:00,35.0,28.2,30.11,WNW,292,9.0,15.0,76,0.00,,---,0.00,VWS V14.01,2013-03-10 03:19:00,
2013-03-09 20:29:00,34.0,27.6,30.11,NW,315,4.0,10.0,77,0.00,,---,0.00,VWS V14.01,2013-03-10 03:29:00,
2013-03-09 20:39:00,34.0,27.9,30.12,West,270,8.0,8.0,78,0.00,,---,0.00,VWS V14.01,2013-03-10 03:39:00,
2013-03-09 20:49:00,34.0,28.2,30.12,West,270,7.0,10.0,79,0.00,,---,0.00,VWS V14.01,2013-03-10 03:49:00,
2013-03-09 20:59:00,33.0,27.2,30.13,West,270,4.0,9.0,79,0.00,,---,0.00,VWS V14.01,2013-03-10 03:59:00,
2013-03-09 21:09:00,33.0,27.5,30.13,West,270,2.0,10.0,80,0.00,,---,0.00,VWS V14.01,2013-03-10 04:09:00,
2013-03-09 21:19:00,33.0,27.8,30.13,West,270,0.0,7.0,81,0.00,,---,0.00,VWS V14.01,2013-03-10 04:19:00,
2013-03-09 21:29:00,32.0,27.1,30.14,West,270,0.0,0.0,82,0.00,,---,0.00,VWS V14.01,2013-03-10 04:29:00,
2013-03-09 21:39:00,32.0,27.4,30.14,North,360,0.0,0.0,83,0.00,,---,0.00,VWS V14.01,2013-03-10 04:39:00,
2013-03-09 21:49:00,31.0,26.7,30.14,West,270,0.0,0.0,84,0.00,,---,0.00,VWS V14.01,2013-03-10 04:49:00,
2013-03-09 21:59:00,31.0,27.0,30.15,West,270,0.0,0.0,85,0.00,,---,0.00,VWS V14.01,2013-03-10 04:59:00,
2013-03-09 22:09:00,31.0,27.3,30.16,West,270,0.0,0.0,86,0.00,,---,0.00,VWS V14.01,2013-03-10 05:09:00,
2013-03-09 22:19:00,31.0,27.6,30.16,West,270,0.0,0.0,87,0.00,,---,0.00,VWS V14.01,2013-03-10 05:19:00,
2013-03-09 22:29:00,31.0,27.6,30.16,West,270,0.0,0.0,87,0.00,,---,0.00,VWS V14.01,2013-03-10 05:29:00,
2013-03-09 22:39:00,31.0,27.6,30.16,WSW,247,0.0,0.0,87,0.00,,---,0.00,VWS V14.01,2013-03-10 05:39:00,
2013-03-09 22:49:00,31.0,27.9,30.16,WSW,247,0.0,0.0,88,0.00,,---,0.00,VWS V14.01,2013-03-10 05:49:00,
2013-03-09 22:59:00,31.0,27.9,30.16,WSW,247,0.0,0.0,88,0.00,,---,0.00,VWS V14.01,2013-03-10 05:59:00,
2013-03-09 23:09:00,31.0,27.9,30.16,WSW,247,0.0,0.0,88,0.00,,---,0.00,VWS V14.01,2013-03-10 06:09:00,
2013-03-09 23:19:00,31.0,27.9,30.16,WSW,247,0.0,0.0,88,0.00,,---,0.00,VWS V14.01,2013-03-10 06:19:00,
2013-03-09 23:29:00,31.0,27.9,30.16,WSW,247,0.0,0.0,88,0.00,,---,0.00,VWS V14.01,2013-03-10 06:29:00,
2013-03-09 23:39:00,31.0,27.6,30.16,West,270,0.0,0.0,87,0.00,,---,0.00,VWS V14.01,2013-03-10 06:39:00,
2013-03-09 23:49:00,32.0,28.3,30.16,WNW,292,0.0,0.0,86,0.00,,---,0.00,VWS V14.01,2013-03-10 06:49:00,
2013-03-09 23:59:00,32.0,28.0,30.15,WNW,292,0.0,8.0,85,0.00,,---,0.00,VWS V14.01,2013-03-10 06:59:00,